This is the latest recevied weather packets stored in our database for station/object XE2G-31. If no packets are shown the sender has not sent any weather packets the latest 10 day(s).
| Time | Temp. | Humidity | Pressure | Rain* | Wind** | Luminosity | Snow |
|---|---|---|---|---|---|---|---|
| 1778113731 | 29.44° C | 38% | 868 hPa | - | - | - | - |
| 1778112784 | 29.44° C | 35% | 868 hPa | - | - | - | - |
| 1778111837 | 30° C | 35% | 868 hPa | - | - | - | - |
| 1778110890 | 30.56° C | 35% | 868 hPa | - | - | - | - |
| 1778109943 | 30.56° C | 35% | 868 hPa | - | - | - | - |
| 1778108997 | 31.11° C | 35% | 868 hPa | - | - | - | - |
| 1778108050 | 31.11° C | 37% | 868 hPa | - | - | - | - |
| 1778107103 | 31.11° C | 38% | 868 hPa | - | - | - | - |
| 1778106156 | 31.67° C | 36% | 867 hPa | - | - | - | - |
| 1778105209 | 31.11° C | 31% | 867 hPa | - | - | - | - |
| 1778104262 | 32.22° C | 27% | 867 hPa | - | - | - | - |
| 1778103316 | 32.78° C | 27% | 867 hPa | - | - | - | - |
| 1778102369 | 32.78° C | 27% | 867 hPa | - | - | - | - |
| 1778101422 | 32.78° C | 26% | 867 hPa | - | - | - | - |
| 1778100475 | 33.33° C | 27% | 868 hPa | - | - | - | - |
| 1778099528 | 33.33° C | 25% | 868 hPa | - | - | - | - |
| 1778098582 | 33.33° C | 24% | 868 hPa | - | - | - | - |
| 1778097635 | 33.33° C | 20% | 868 hPa | - | - | - | - |
| 1778096688 | 33.89° C | 19% | 868 hPa | - | - | - | - |
| 1778095741 | 33.89° C | 19% | 868 hPa | - | - | - | - |
| 1778094794 | 33.89° C | 23% | 868 hPa | - | - | - | - |
| 1778093848 | 34.44° C | 28% | 869 hPa | - | - | - | - |
| 1778092900 | 35° C | 25% | 869 hPa | - | - | - | - |
| 1778091954 | 33.89° C | 23% | 869 hPa | - | - | - | - |
| 1778091008 | 34.44° C | 23% | 869 hPa | - | - | - | - |
* Rain since midnight (hover to see other rain measurements)
** Current wind speed in m/s (hover to see current wind gust speed)